Regional Weather Roundup
Issued by NWS

Home | Current Version | Previous Version | Graphics & Text | Print | Product List | Glossary On
Versions: 1 2 3 4 5 6 7 8 9 10 11 12 13 14 15 16 17 18 19 20 21 22 23 24 25 26 27 28 29 30 31 32 33 34 35 36 37 38 39 40 41 42 43 44 45 46 47 48 49 50
000
ASUS43 KLMK 170310
RWRKY
KENTUCKY REGIONAL WEATHER ROUNDUP
NATIONAL WEATHER SERVICE LOUISVILLE KY
1100 PM EDT WED AUG 16 2017

NOTE "FAIR" INDICATES FEW OR NO CLOUDS BELOW 12,000 FEET
WITH NO SIGNIFICANT WEATHER AND/OR OBSTRUCTIONS TO VISIBILITY.

KYZ001>023-026-027-061>063-070>075-170400-
WESTERN AND SOUTH CENTRAL KENTUCKY

CITY           SKY/WX    TMP DP  RH WIND       PRES   REMARKS
PADUCAH        PTCLDY    78  74  87 CALM      29.97R
HENDERSON      PTCLDY    76  75  97 SW3       29.96S
OWENSBORO      CLEAR     78  74  87 S7        29.97R
HOPKINSVILLE   PTCLDY    78  76  91 S6        29.99S
BOWLING GREEN  PTCLDY    78  77  96 CALM      30.00S
GLASGOW        PTCLDY    76  76 100 CALM      30.01S
$$

KYZ024-025-028>034-038-045-046-053-170400-
NORTH CENTRAL KENTUCKY

CITY           SKY/WX    TMP DP  RH WIND       PRES   REMARKS
LOUISVILLE/SDF PTCLDY    81  70  69 S8        29.98S
LOUISVILLE/LOU CLEAR     79  73  82 S6        29.99S
FORT KNOX      CLEAR     76  71  84 SE3       29.98F
$$

KYZ035>037-039>044-047>052-055>060-089>105-170400-
NORTHEAST KENTUCKY

CITY           SKY/WX    TMP DP  RH WIND       PRES   REMARKS
LEXINGTON      CLOUDY    76  70  82 SW5       30.04R
COVINGTON      CLOUDY    79  74  84 S5        29.99F
FRANKFORT      CLEAR     78  70  76 SW6       30.01R
$$

KYZ054-064>069-076>088-106>120-170400-
SOUTHEAST KENTUCKY

CITY           SKY/WX    TMP DP  RH WIND       PRES   REMARKS
JACKSON        CLEAR     74  71  91 CALM      30.07S
LONDON         CLOUDY    76  73  91 S3        30.06S
SOMERSET       CLOUDY    75  75 100 CALM      30.06S
MIDDLESBORO    CLEAR     74  74 100 CALM      30.09S
MONTICELLO     CLOUDY    73  72  96 W9        30.07R
$$





USA.gov is the U.S. government's official web portal to all federal, state and local government web resources and services.